Weather History for Juliana Airport, Saint Maarten, Saint Maartin

Change the Weather History Date:

Thursday, February 20, 2014

  Actual Average Record
Temperature  
Mean Temperature 79 °F -  
Max Temperature 83 °F 82 °F - ()
Min Temperature 75 °F 72 °F - ()
Cooling Degree Days 14    
Growing Degree Days 29 (Base 50)    
Moisture  
Dew Point 68 °F    
Average Humidity 68    
Maximum Humidity 83    
Minimum Humidity 49    
Precipitation  
Precipitation 0.04 in 0.06 in - ()
Sea Level Pressure  
Sea Level Pressure 30.05 in    
Wind  
Wind Speed 12 mph ()    
Max Wind Speed 18 mph    
Max Gust Speed -    
Visibility 6.4 miles    
Events Rain    
T = Trace of Precipitation, MM = Missing Value Source: Averaged Metar Reports

Daily Weather History Graph

Daily Weather History Graph

Search for Another Location

Airport:

Trip Planner

Search our weather history database for the weather conditions in past years. The results will help you decide how hot, cold, wet, or windy it might be!

Date:

Astronomy

Feb. 20, 2014 Rise Set
Actual Time 6:36 AM AST 6:15 PM AST
Civil Twilight 6:14 AM AST 6:37 PM AST
Nautical Twilight 5:49 AM AST 7:03 PM AST
Astronomical Twilight 5:23 AM AST 7:28 PM AST
Moon 11:11 PM AST (2/20) 10:07 AM AST (2/20)
Length of Visible Light 12h 22m
Length of Day
11h 38m
Waning Gibbous, 71% of the Moon is Illuminated
Feb 20
Waning Gibbous
Feb 22
Last Quarter
Mar 1
New
Mar 8
First Quarter
Mar 16
Full

Hourly Weather History & Observations

Time (AST) Temp. Heat Index Dew Point Humidity Pressure Visibility Wind Dir Wind Speed Gust Speed Precip Events Conditions
12:00 AM 77.0 °F - 68.0 °F 74% 30.06 in 6.2 mi East 11.5 mph - N/A   Scattered Clouds
1:00 AM 77.0 °F - 68.0 °F 74% 30.04 in 6.2 mi ENE 10.4 mph - N/A   Mostly Cloudy
2:00 AM 77 °F - 67 °F 65% 30.04 in 22 mi East 15.0 mph - - Rain Light Rain Showers
2:00 AM 77.0 °F - 68.0 °F 74% 30.04 in 6.2 mi East 13.8 mph - N/A   Scattered Clouds
3:00 AM 77.0 °F - 66.2 °F 69% 30.01 in 6.2 mi ENE 11.5 mph - N/A   Scattered Clouds
4:00 AM 77.0 °F - 66.2 °F 69% 30.01 in 6.2 mi East 12.7 mph - N/A   Scattered Clouds
5:00 AM 76 °F - 67 °F 66% 30.03 in 22 mi ENE 12.7 mph - -   Partly Cloudy
5:00 AM 77.0 °F - 66.2 °F 69% 30.01 in 6.2 mi ENE 12.7 mph - N/A   Scattered Clouds
6:00 AM 77.0 °F - 66.2 °F 69% 30.04 in 6.2 mi East 12.7 mph - N/A   Partly Cloudy
7:00 AM 77.0 °F - 68.0 °F 74% 30.04 in 6.2 mi East 12.7 mph - N/A   Scattered Clouds
8:00 AM 79 °F - 68 °F 60% 30.08 in 31 mi ESE 11.5 mph - -   Partly Cloudy
8:00 AM 78.8 °F - 68.0 °F 69% 30.06 in 6.2 mi ESE 11.5 mph - N/A   Scattered Clouds
9:00 AM 80.6 °F 82.7 °F 66.2 °F 61% 30.06 in 6.2 mi East 13.8 mph - N/A   Partly Cloudy
10:00 AM 80.6 °F 83.2 °F 68.0 °F 65% 30.09 in 6.2 mi East 16.1 mph - N/A   Partly Cloudy
11:00 AM 81 °F - 68 °F 56% 30.10 in 31 mi East 18.4 mph - -   Partly Cloudy
11:00 AM 80.6 °F 83.2 °F 68.0 °F 65% 30.09 in 6.2 mi East 18.4 mph - N/A   Scattered Clouds
12:00 PM 82.4 °F 85.4 °F 68.0 °F 62% 30.06 in 6.2 mi East 12.7 mph - N/A   Scattered Clouds
1:00 PM 82.4 °F 85.4 °F 68.0 °F 62% 30.06 in 6.2 mi East 13.8 mph - N/A   Scattered Clouds
2:00 PM 83 °F - 67 °F 49% 30.04 in 22 mi East 13.8 mph - -   Partly Cloudy
2:00 PM 82.4 °F 84.6 °F 66.2 °F 58% 30.04 in 6.2 mi East 13.8 mph - N/A   Mostly Cloudy
3:00 PM 82.4 °F 84.6 °F 66.2 °F 58% 30.01 in 6.2 mi East 12.7 mph - N/A   Scattered Clouds
4:00 PM 80.6 °F 83.2 °F 68.0 °F 65% 30.01 in 6.2 mi East 13.8 mph - N/A   Scattered Clouds
4:38 PM 80.6 °F 83.9 °F 69.8 °F 70% 30.01 in 1.9 mi East 13.8 mph - N/A Rain Rain Showers
5:00 PM 79 °F - 70 °F 67% 30.03 in 22 mi ENE 15.0 mph - - Rain Light Rain Showers
5:00 PM 78.8 °F - 69.8 °F 74% 30.01 in 6.2 mi ENE 15.0 mph - N/A   Scattered Clouds
6:00 PM 78.8 °F - 68.0 °F 69% 30.04 in 6.2 mi ENE 16.1 mph - N/A   Scattered Clouds
7:00 PM 77.0 °F - 68.0 °F 74% 30.04 in 6.2 mi ENE 16.1 mph - N/A   Scattered Clouds
8:00 PM 78 °F - 69 °F 66% 30.07 in 16 mi ENE 13.8 mph - -   Partly Cloudy
8:00 PM 78.8 °F - 68.0 °F 69% 30.06 in 6.2 mi ENE 13.8 mph - N/A   Scattered Clouds
9:00 PM 77.0 °F - 68.0 °F 74% 30.06 in 6.2 mi ENE 15.0 mph - N/A   Mostly Cloudy
10:00 PM 75.2 °F - 69.8 °F 83% 30.06 in 6.2 mi East 17.3 mph - N/A Rain Light Rain Showers
11:00 PM 76 °F - 70 °F 78% 30.09 in 22 mi East 13.8 mph - - Rain Light Rain Showers
11:00 PM 77.0 °F - 69.8 °F 78% 30.06 in 6.2 mi East 13.8 mph - N/A   Scattered Clouds